Rome Ciampino, Italy

10:45 AM CET on November 20, 2017 (GMT +0100)
Ciampino

Weather History for LIRA - July, 2014

Change the Weather History Date:

Monday, July 21, 2014

  Actual Average Record
Temperature  
Mean Temperature 76 °F -  
Max Temperature 84 °F 87 °F 95 °F (2006)
Min Temperature 68 °F 64 °F 59 °F (2000)
Cooling Degree Days 11    
Growing Degree Days 26 (Base 50)    
Moisture  
Dew Point 63 °F    
Average Humidity 65    
Maximum Humidity 88    
Minimum Humidity 25    
Precipitation  
Precipitation 0.00 in 0.04 in - ()
Sea Level Pressure  
Sea Level Pressure 29.87 in    
Wind  
Wind Speed 11 mph ()    
Max Wind Speed 60 mph    
Max Gust Speed 36 mph    
Visibility 6.0 miles    
Events Rain    
Averages and records for this station are not official NWS values.
T = Trace of Precipitation, MM = Missing Value Source: Averaged Metar Reports

Daily Weather History Graph

Daily Weather History Graph

Search for Another Location

Airport or City:

Trip Planner

Search our weather history database for the weather conditions in past years. The results will help you decide how hot, cold, wet, or windy it might be!

Date:

Astronomy

Jul. 21, 2014 Rise Set
Actual Time 5:53 AM CEST 8:38 PM CEST
Civil Twilight 5:20 AM CEST 9:11 PM CEST
Nautical Twilight 4:39 AM CEST 9:52 PM CEST
Astronomical Twilight 3:52 AM CEST 10:39 PM CEST
Moon 1:33 AM CEST (7/21) 4:03 PM CEST (7/21)
Length of Visible Light 15h 50m
Length of Day
14h 45m
Waning Crescent, 27% of the Moon is Illuminated
Jul 21
Waning Crescent
Jul 27
New
Aug 4
First Quarter
Aug 10
Full
Aug 17
Last Quarter

Hourly Weather History & Observations

Time (CEST) Temp. Heat Index Dew Point Humidity Pressure Visibility Wind Dir Wind Speed Gust Speed Precip Events Conditions
12:15 AM 77.0 °F - 60.8 °F 57% 29.92 in 6.2 mi SSW 8.1 mph - N/A   Scattered Clouds
12:45 AM 78.8 °F - 60.8 °F 54% 29.89 in 6.2 mi SE 15.0 mph - N/A   Scattered Clouds
1:15 AM 82.4 °F - 51.8 °F 35% 29.83 in 6.2 mi SE 13.8 mph - N/A   Scattered Clouds
1:45 AM 84.2 °F 82.8 °F 53.6 °F 35% 29.83 in 6.2 mi SSE 8.1 mph - N/A   Scattered Clouds
2:00 AM 83 °F - 53 °F 25% 29.82 in 6 mi SSE 8.1 mph - -   Scattered Clouds
2:15 AM 84.2 °F - 51.8 °F 33% 29.83 in 6.2 mi SW 2.3 mph - N/A   Scattered Clouds
2:45 AM 78.8 °F - 59.0 °F 51% 29.89 in 6.2 mi WSW 12.7 mph 35.7 mph N/A   Scattered Clouds
3:15 AM 75.2 °F - 60.8 °F 61% 29.89 in 6.2 mi SSW 10.4 mph - N/A   Scattered Clouds
3:45 AM 75.2 °F - 64.4 °F 69% 29.89 in 6.2 mi South 10.4 mph - N/A   Scattered Clouds
4:15 AM 77.0 °F - 64.4 °F 65% 29.89 in 6.2 mi SSE 10.4 mph - N/A   Mostly Cloudy
4:45 AM 77.0 °F - 64.4 °F 65% 29.92 in 6.2 mi South 11.5 mph - N/A   Mostly Cloudy
5:00 AM - - 64 °F % 29.92 in 6 mi NNE 59.8 mph - -   Partly Cloudy
5:15 AM 75.2 °F - 69.8 °F 83% 29.95 in 5.0 mi South 15.0 mph - N/A Rain Light Rain
5:45 AM 73.4 °F - 69.8 °F 88% 29.92 in 5.0 mi SSE 13.8 mph - N/A Rain Light Rain
6:45 AM 73.4 °F - 68.0 °F 83% 29.92 in 5.0 mi SE 9.2 mph - N/A Rain Light Rain
7:15 AM 71.6 °F - 68.0 °F 88% 29.89 in 5.0 mi ENE 6.9 mph - N/A Rain Light Rain
7:45 AM 71.6 °F - 68.0 °F 88% 29.89 in 5.0 mi ESE 15.0 mph - N/A   Mostly Cloudy
8:15 AM 71.6 °F - 64.4 °F 78% 29.89 in 5.0 mi ESE 13.8 mph - N/A   Mostly Cloudy
8:45 AM 73.4 °F - 64.4 °F 73% 29.89 in 5.0 mi SSE 5.8 mph - N/A   Mostly Cloudy
9:15 AM 73.4 °F - 64.4 °F 73% 29.89 in 6.2 mi SSE 8.1 mph - N/A   Mostly Cloudy
9:45 AM 75.2 °F - 64.4 °F 69% 29.89 in 6.2 mi SSE 15.0 mph - N/A   Scattered Clouds
10:15 AM 75.2 °F - 66.2 °F 73% 29.89 in 6.2 mi South 15.0 mph - N/A   Scattered Clouds
10:45 AM 77.0 °F - 66.2 °F 69% 29.86 in 6.2 mi South 17.3 mph - N/A   Scattered Clouds
11:00 AM 77 °F - 66 °F 60%  in 6 mi South 17.3 mph - -  
11:15 AM 78.8 °F - 66.2 °F 65% 29.86 in 6.2 mi South 17.3 mph - N/A   Scattered Clouds
11:55 AM 80.6 °F 82.3 °F 64.4 °F 58% 29.86 in 6.2 mi SSE 19.6 mph - N/A   Scattered Clouds
12:15 PM 77.0 °F - 64.4 °F 65% 29.86 in 6.2 mi SSW 15.0 mph - N/A   Scattered Clouds
12:45 PM 78.8 °F - 62.6 °F 57% 29.86 in 6.2 mi SW 12.7 mph 25.3 mph N/A   Scattered Clouds
1:45 PM 77.0 °F - 66.2 °F 69% 29.86 in 6.2 mi SSW 12.7 mph - N/A   Scattered Clouds
2:55 PM 77.0 °F - 62.6 °F 61% 29.89 in 6.2 mi SW 12.7 mph - N/A   Scattered Clouds
3:15 PM 77.0 °F - 62.6 °F 61% 29.89 in 6.2 mi West 11.5 mph - N/A   Scattered Clouds
3:45 PM 78.8 °F - 64.4 °F 61% 29.89 in 6.2 mi WSW 12.7 mph - N/A   Scattered Clouds
4:15 PM 77.0 °F - 62.6 °F 61% 29.86 in 6.2 mi SW 12.7 mph - N/A   Scattered Clouds
4:45 PM 77.0 °F - 60.8 °F 57% 29.86 in 6.2 mi SW 10.4 mph - N/A   Scattered Clouds
5:00 PM 77 °F - 61 °F 47% 29.85 in 7 mi SW 10.4 mph - -   Partly Cloudy
5:15 PM 77.0 °F - 60.8 °F 57% 29.86 in 6.2 mi SW 11.5 mph - N/A   Scattered Clouds
5:45 PM 77.0 °F - 60.8 °F 57% 29.86 in 6.2 mi WSW 11.5 mph - N/A   Mostly Cloudy
6:15 PM 77.0 °F - 59.0 °F 54% 29.83 in 6.2 mi SW 11.5 mph - N/A   Scattered Clouds
6:45 PM 75.2 °F - 60.8 °F 61% 29.83 in 6.2 mi SW 12.7 mph - N/A   Scattered Clouds
7:15 PM 73.4 °F - 60.8 °F 65% - 6.2 mi SW 10.4 mph - N/A   Scattered Clouds
9:15 PM 69.8 °F - 64.4 °F 83% 29.83 in 6.2 mi SSW 5.8 mph - N/A   Scattered Clouds
9:45 PM 69.8 °F - 64.4 °F 83% 29.83 in 6.2 mi SW 4.6 mph - N/A   Scattered Clouds
10:15 PM 68.0 °F - 64.4 °F 88% 29.83 in 6.2 mi SSW 4.6 mph - N/A   Partly Cloudy
10:45 PM 68.0 °F - 64.4 °F 88% 29.83 in 6.2 mi South 5.8 mph - N/A   Scattered Clouds
11:00 PM 69 °F - 64 °F 79% 29.83 in 6 mi South 5.8 mph - -   Mostly Cloudy
11:45 PM 68.0 °F - 62.6 °F 83% 29.80 in 6.2 mi South 5.8 mph - N/A   Scattered Clouds